Waarnemingen

Advertentie
Mijn weer
Llanes, Spanje (8016): temperatuur & dauwpunt: 20.09.2018 09:00:00 - 26.09.2018 09:00:00 (CEST)Llanes, Spanje (8016): windsnelheid & windstoten: 20.09.2018 09:00:00 - 26.09.2018 09:00:00 (CEST)Llanes, Spanje (8016): windrichting: 20.09.2018 09:00:00 - 26.09.2018 09:00:00 (CEST)Llanes, Spanje (8016): luchtdruk: 20.09.2018 09:00:00 - 26.09.2018 09:00:00 (CEST)Llanes, Spanje (8016): zicht: 20.09.2018 09:00:00 - 26.09.2018 09:00:00 (CEST)Llanes, Spanje (8016): Zonneschijnduur: 20.09.2018 09:00:00 - 26.09.2018 09:00:00 (CEST)Llanes, Spanje (8016): neerslag: 20.09.2018 09:00:00 - 26.09.2018 09:00:00 (CEST)
Datum & Tijd tt [°C] td [°C] ff [km/u] ff [kn] fx [km/u] fx [kn] dd ppp [hPa] vv [km] sd [min] rr [mm]
26.09.2018 09:00:00 - - - - - - - - - - -
26.09.2018 08:00:00 10,9 8,7 11 6 16 8 ZW 1024,1 20 0 -
26.09.2018 07:00:00 11,1 8,8 11 6 16 9 WZW 1023,9 20 0 0,0
26.09.2018 06:00:00 11,1 8,7 10 5 14 7 WZW 1023,9 20 0 0,0
26.09.2018 05:00:00 11,3 8,9 8 5 13 7 WZW 1024,4 20 0 0,0
26.09.2018 04:00:00 11,4 8,8 9 5 14 8 WZW 1025,0 20 0 0,0
26.09.2018 03:00:00 11,5 8,7 9 5 12 7 W 1025,5 20 0 0,0
26.09.2018 02:00:00 12,3 8,9 3 2 6 3 ZW 1026,0 20 0 -
26.09.2018 01:00:00 13,1 9,2 0 0 14 8 N 1026,6 20 0 0,0
26.09.2018 00:00:00 13,7 9,3 2 1 15 8 Z 1026,8 11 0 0,0
25.09.2018 23:00:00 14,5 10,2 9 5 17 9 ZZO 1027,2 15 0 0,0
25.09.2018 22:00:00 14,3 9,9 9 5 17 9 Z 1027,2 14 0 0,0
25.09.2018 21:00:00 14,9 10,0 9 5 18 10 Z 1027,4 20 0 0,0
25.09.2018 20:00:00 - - - - - - - - - - -
25.09.2018 19:00:00 16,7 10,8 18 10 29 16 OZO 1026,5 14 60 0,0
25.09.2018 18:00:00 17,4 11,4 20 11 31 17 OZO 1026,8 8 60 0,0
25.09.2018 17:00:00 17,9 11,2 21 11 31 17 OZO 1027,2 17 60 0,0
25.09.2018 16:00:00 18,3 11,6 17 9 28 15 OZO 1027,5 14 60 0,0
25.09.2018 15:00:00 18,6 11,2 17 9 27 14 OZO 1027,8 18 60 0,0
25.09.2018 14:00:00 18,1 11,4 16 8 32 17 O 1028,3 14 60 -
25.09.2018 13:00:00 17,9 11,4 23 12 31 17 O 1028,5 20 60 0,0
25.09.2018 12:00:00 17,6 11,7 24 13 30 16 O 1028,7 20 60 0,0
25.09.2018 11:00:00 17,2 10,3 16 9 31 17 OZO 1028,8 20 58 0,0
25.09.2018 10:00:00 16,7 9,8 14 8 27 15 O 1028,5 20 60 0,0
25.09.2018 09:00:00 15,6 8,1 15 8 29 16 ZO 1028,0 20 16 0,0
25.09.2018 08:00:00 15,4 8,0 16 9 30 16 ZO 1027,8 19 0 -
25.09.2018 07:00:00 15,3 7,8 11 6 27 14 ZZO 1027,9 20 0 0,0
25.09.2018 06:00:00 15,4 7,7 12 7 28 15 ZO 1028,0 18 0 0,0
25.09.2018 05:00:00 15,1 7,4 14 7 26 14 ZZO 1028,4 20 0 0,0
25.09.2018 04:00:00 14,9 7,7 13 7 27 14 ZZO 1029,0 20 0 0,0
25.09.2018 03:00:00 14,6 7,4 14 7 28 15 ZZO 1029,4 20 0 0,0
25.09.2018 02:00:00 14,2 7,3 12 7 27 15 ZZO 1029,8 20 0 -
25.09.2018 01:00:00 13,8 8,0 14 8 24 13 Z 1030,3 20 0 0,0
25.09.2018 00:00:00 13,9 9,2 13 7 25 14 ZZO 1030,9 16 0 0,0
24.09.2018 23:00:00 14,0 9,4 10 5 22 12 ZZO 1030,9 20 0 0,0
24.09.2018 22:00:00 14,9 10,0 14 7 23 12 ZO 1030,7 13 0 0,0
24.09.2018 21:00:00 15,4 10,5 11 6 24 13 ZO 1030,6 8 0 0,0
24.09.2018 20:00:00 15,7 11,1 12 6 23 13 ZO 1030,5 6 0 -
24.09.2018 19:00:00 16,0 11,8 10 6 19 10 ZO 1030,6 6 0 0,0
24.09.2018 18:00:00 16,0 11,6 10 5 24 13 ZO 1030,6 9 0 0,0
24.09.2018 17:00:00 16,0 11,6 11 6 29 16 ZO 1030,9 8 0 0,0
24.09.2018 16:00:00 16,2 12,0 18 10 35 19 OZO 1031,2 7 0 0,0
24.09.2018 15:00:00 16,3 12,2 23 13 37 20 O 1031,3 7 0 0,0
24.09.2018 14:00:00 16,4 13,0 22 12 36 20 O 1031,6 20 0 -
24.09.2018 13:00:00 16,4 13,9 12 6 22 12 ZZO 1032,0 18 0 0,2
24.09.2018 12:00:00 16,2 14,0 16 8 29 16 OZO 1032,3 8 0 0,0
24.09.2018 11:00:00 16,2 14,2 12 7 26 14 ZZO 1032,2 9 0 0,2
24.09.2018 10:00:00 16,1 14,2 15 8 30 16 OZO 1031,8 4,7 0 0,6
24.09.2018 09:00:00 16,0 14,3 12 6 33 18 ZO 1031,2 4,3 0 0,4
24.09.2018 08:00:00 16,3 14,6 9 5 27 14 ZZO 1030,6 3,9 0 -
24.09.2018 07:00:00 16,9 15,3 13 7 35 19 ZO 1029,9 2,3 0 1,0
24.09.2018 06:00:00 17,3 15,6 24 13 36 19 O 1029,7 2,2 0 2,0
24.09.2018 05:00:00 17,9 16,2 23 12 32 17 O 1029,2 2,0 0 3,4
24.09.2018 04:00:00 18,2 16,4 1 1 7 4 WZW 1029,1 1,5 0 2,2
24.09.2018 03:00:00 18,4 16,6 6 3 19 10 O 1029,4 1,6 0 2,2
24.09.2018 02:00:00 18,5 16,6 12 7 24 13 ONO 1029,0 1,9 0 -
24.09.2018 01:00:00 19,3 17,5 2 1 23 13 ZZO 1028,5 1,1 0 2,6
24.09.2018 00:00:00 20,2 18,2 9 5 18 10 WNW 1027,9 1,8 0 0,4
23.09.2018 23:00:00 20,6 18,2 10 5 19 10 W 1027,7 2,4 0 0,0
23.09.2018 22:00:00 20,5 17,7 8 4 15 8 NW 1027,6 16 0 0,0
23.09.2018 21:00:00 20,6 17,8 9 5 18 10 WNW 1027,4 20 0 0,0
23.09.2018 20:00:00 20,5 17,7 9 5 21 11 WNW 1026,9 20 0 -
23.09.2018 19:00:00 20,9 17,7 13 7 28 15 WNW 1026,3 20 0 0,0
23.09.2018 18:00:00 21,4 17,6 9 5 26 14 NW 1025,8 20 14 0,0
23.09.2018 17:00:00 20,2 17,2 15 8 31 17 WNW 1025,8 20 5 0,0
23.09.2018 16:00:00 20,1 17,1 19 11 28 15 NW 1025,6 13 40 0,0
23.09.2018 15:00:00 19,7 17,3 13 7 29 16 WNW 1025,8 8 0 0,0
23.09.2018 14:00:00 19,7 17,1 13 7 24 13 NW 1025,6 7 0 -
23.09.2018 13:00:00 19,8 17,1 16 8 21 11 NW 1024,9 10 0 0,0
23.09.2018 12:00:00 20,1 17,5 9 5 23 12 NW 1024,6 11 0 0,0
23.09.2018 11:00:00 19,8 17,1 9 5 17 9 NW 1024,6 20 41 0,0
23.09.2018 10:00:00 20,0 17,6 3 2 8 4 WNW 1024,1 20 60 0,0
23.09.2018 09:00:00 18,0 15,8 6 4 10 5 WZW 1023,7 20 14 0,0
23.09.2018 08:00:00 17,4 15,3 3 2 8 5 ZW 1023,2 20 0 -
23.09.2018 07:00:00 17,4 15,1 4 2 14 7 ZW 1023,2 20 0 0,0
23.09.2018 06:00:00 18,0 15,6 10 5 14 7 ZW 1023,2 20 0 0,0
23.09.2018 05:00:00 17,5 15,3 9 5 13 7 WZW 1023,4 20 0 0,0
23.09.2018 04:00:00 17,9 15,5 2 1 8 4 WNW 1023,7 20 0 0,0
23.09.2018 03:00:00 18,0 15,6 6 3 9 5 ZW 1024,3 20 0 0,0
23.09.2018 02:00:00 18,4 15,8 6 3 9 5 WZW 1024,7 20 0 -
23.09.2018 01:00:00 19,0 16,2 5 3 9 5 ZW 1024,8 20 0 0,0
23.09.2018 00:00:00 18,9 16,1 4 2 8 5 WZW 1025,0 20 0 0,0
22.09.2018 23:00:00 18,9 15,8 4 2 9 5 W 1025,0 20 0 0,0
22.09.2018 22:00:00 19,5 16,1 6 3 9 5 WZW 1024,6 20 0 0,0
22.09.2018 21:00:00 20,2 16,2 3 1 10 5 W 1024,2 20 0 0,0
22.09.2018 20:00:00 20,8 16,2 6 4 16 9 W 1023,7 20 4 -
22.09.2018 19:00:00 22,6 16,6 6 4 20 11 NW 1023,6 20 60 0,0
22.09.2018 18:00:00 23,5 17,1 7 4 13 7 NW 1023,4 20 60 0,0
22.09.2018 17:00:00 22,9 16,9 3 2 20 11 N 1023,6 20 60 0,0
22.09.2018 16:00:00 23,3 17,1 8 4 14 8 NNW 1023,5 20 60 0,0
22.09.2018 15:00:00 23,7 18,2 5 3 10 5 N 1023,5 20 60 0,0
22.09.2018 14:00:00 23,1 18,4 2 1 6 4 N 1023,7 20 60 -
22.09.2018 13:00:00 21,6 17,4 3 2 6 3 ONO 1023,5 20 60 0,0
22.09.2018 12:00:00 21,3 17,5 3 1 5 3 O 1023,3 20 60 0,0
22.09.2018 11:00:00 20,5 17,5 3 1 6 3 NO 1022,9 20 58 0,0
22.09.2018 10:00:00 19,0 17,0 3 1 6 3 ONO 1022,4 20 60 0,0
22.09.2018 09:00:00 17,0 15,2 3 2 9 5 ZW 1022,5 20 13 0,0
22.09.2018 08:00:00 16,6 14,8 6 4 10 5 ZW 1022,2 20 0 -
22.09.2018 07:00:00 16,8 15,0 7 4 13 7 ZW 1021,8 17 0 0,2
22.09.2018 06:00:00 17,6 15,6 4 2 8 4 W 1021,6 14 0 0,0
22.09.2018 05:00:00 18,1 16,0 2 1 7 4 WZW 1022,1 14 0 0,0
22.09.2018 04:00:00 18,2 16,1 3 2 7 4 NNW 1022,4 3,4 0 0,0
22.09.2018 03:00:00 18,4 16,4 2 1 5 3 ZZW 1023,3 12 0 0,0
22.09.2018 02:00:00 18,4 16,4 1 1 5 3 O 1023,6 3,3 0 -
22.09.2018 01:00:00 18,3 16,3 3 2 11 6 O 1023,6 9 0 0,0
22.09.2018 00:00:00 18,2 16,4 5 3 23 13 OZO 1023,8 7 0 0,0
21.09.2018 23:00:00 18,2 16,4 12 6 22 12 OZO 1023,8 3,6 0 0,0
21.09.2018 22:00:00 18,4 16,4 6 3 16 9 OZO 1024,2 2,6 0 0,0
21.09.2018 21:00:00 18,8 16,4 7 4 15 8 O 1023,8 1,9 0 0,0
21.09.2018 20:00:00 19,0 16,4 2 1 6 3 NO 1023,5 9 0 -
21.09.2018 19:00:00 19,1 16,3 5 3 12 7 ZZW 1023,1 7 0 0,0
21.09.2018 18:00:00 19,7 16,3 2 1 12 6 NW 1023,2 20 0 0,0
21.09.2018 17:00:00 20,0 16,5 11 6 17 9 NW 1022,9 11 0 0,0
21.09.2018 16:00:00 20,2 16,5 9 5 20 11 NW 1022,7 20 2 0,0
21.09.2018 15:00:00 20,4 16,4 14 8 24 13 NW 1022,4 20 0 0,0
21.09.2018 14:00:00 21,0 16,2 14 8 23 12 WNW 1022,3 20 0 -
21.09.2018 13:00:00 20,5 15,3 10 6 20 11 WNW 1022,2 20 0 0,0
21.09.2018 12:00:00 21,9 15,5 6 4 11 6 NNW 1021,7 20 37 0,0
21.09.2018 11:00:00 20,5 15,3 3 2 15 8 NW 1021,1 20 47 0,0
21.09.2018 10:00:00 19,3 15,5 6 4 12 7 ZW 1020,1 20 49 0,0
21.09.2018 09:00:00 17,3 14,2 8 5 12 7 ZW 1019,3 20 0 0,0
21.09.2018 08:00:00 17,1 14,0 3 2 13 7 NW 1018,4 20 0 -
21.09.2018 07:00:00 17,1 14,1 4 2 12 6 WNW 1017,9 20 0 0,0
21.09.2018 06:00:00 16,9 14,1 9 5 17 9 ZW 1017,5 20 0 0,0
21.09.2018 05:00:00 17,0 14,2 3 2 10 5 ZW 1017,1 18 0 0,0
21.09.2018 04:00:00 16,8 14,0 3 2 15 8 ZZW 1017,4 18 0 0,0
21.09.2018 03:00:00 16,8 14,0 5 3 13 7 WZW 1017,7 16 0 0,0
21.09.2018 02:00:00 17,3 14,6 6 3 16 9 ZW 1017,6 20 0 -
21.09.2018 01:00:00 17,6 14,5 7 4 14 8 ZW 1018,0 15 0 0,0
21.09.2018 00:00:00 18,1 14,8 6 3 10 5 ZW 1018,1 20 0 0,0
20.09.2018 23:00:00 18,2 14,9 5 3 16 8 ZW 1018,4 15 0 0,0
20.09.2018 22:00:00 18,8 15,9 6 3 33 18 W 1018,6 11 0 0,0
20.09.2018 21:00:00 19,7 16,6 3 2 6 3 W 1017,9 8 0 0,0
20.09.2018 20:00:00 20,2 16,6 2 1 5 3 ONO 1017,3 11 0 -
20.09.2018 19:00:00 21,2 17,4 1 1 4 2 O 1017,4 10 18 0,0
20.09.2018 18:00:00 22,1 17,9 2 1 7 4 NNW 1017,6 10 57 0,0
20.09.2018 17:00:00 22,4 17,8 3 2 11 6 N 1017,6 8 60 0,0
20.09.2018 16:00:00 22,3 17,9 4 2 13 7 N 1017,9 7 41 0,0
20.09.2018 15:00:00 20,5 16,6 11 6 16 9 NW 1018,7 9 30 0,0
20.09.2018 14:00:00 21,1 16,9 7 4 13 7 NNW 1018,6 8 56 -
20.09.2018 13:00:00 20,7 16,7 8 5 16 9 NNW 1019,2 10 60 0,0
20.09.2018 12:00:00 20,3 16,9 10 5 20 11 NW 1019,5 12 60 0,0
20.09.2018 11:00:00 19,7 17,1 5 3 13 7 NW 1020,0 9 13 0,0
20.09.2018 10:00:00 18,2 16,0 4 2 9 5 NW 1019,7 10 0 0,0
20.09.2018 09:00:00 17,1 15,1 0 0 12 6 N 1019,5 10 0 0,0

tt = temperatuur
td = dauwpunt
ff = windsnelheid
fx = windstoten
dd = windrichting
ppp = luchtdruk
vv = zicht
sd = Zonneschijnduur
rr = neerslag

Weerstations in de omgeving